Tracking 34085 objects as of 13-May-2026
HD Live streaming from Space Station
objects crossing your sky now

STARLINK-36981

Track STARLINK-36981 now!
10-day predictions
STARLINK-36981 is classified as:


NORAD ID: 68148
Int'l Code: 2026-049G
Perigee: 442.1 km
Apogee: 445.5 km
Inclination: 97.3 °
Period: 93.3 minutes
Semi major axis: 6814 km
RCS: Unknown
Launch date: March 13, 2026
Source: United States (US)
Launch site: AIR FORCE WESTERN TEST RANGE (AFWTR)
Your satellite tracking list
Your tracking list is empty




NASA's NSSDC Master Catalog

Two Line Element Set (TLE):
1 68148U 26049G   26132.83335647 -.02181695  00000-0 -55800-1 0  9994
2 68148  97.2843 154.6626 0002493  67.7932  63.1514 15.43191773  5932
Source of the keplerian elements: AFSPC